| time (UTC) | temp F | wind direction | speed MPH | gust MPH | rain 1hr in | rain 24hr in | rain mn in | humidity % | barometer mb |
| 20260904151928 | 78 | 273 | 2.0 | 6.0 | 0.00 | 0.00 | 0.00 | 73 | 1008.4 |
| 20260904151428 | 78 | 283 | 3.0 | 7.0 | 0.00 | 0.00 | 0.00 | 73 | 1008.4 |
| 20260904150927 | 78 | 252 | 2.0 | 7.0 | 0.00 | 0.00 | 0.00 | 73 | 1008.5 |
| 20260904150429 | 78 | 266 | 2.0 | 8.0 | 0.00 | 0.00 | 0.00 | 76 | 1008.5 |
| 20260904145929 | 77 | 306 | 2.0 | 8.0 | 0.00 | 0.00 | 0.00 | 75 | 1008.6 |
| 20260904145433 | 77 | 336 | 3.0 | 8.0 | 0.00 | 0.00 | 0.00 | 79 | 1008.5 |
| 20260904145429 | 77 | 247 | 2.0 | 7.0 | 0.00 | 0.00 | 0.00 | 77 | 1008.6 |
| 20260904145044 | 76 | 290 | 3.0 | 8.0 | 0.00 | 0.00 | 0.00 | 79 | 1008.7 |
| 20260904143924 | 76 | 288 | 2.0 | 7.0 | 0.00 | 0.00 | 0.00 | 81 | 1008.8 |
| 20260904143424 | 75 | 273 | 1.0 | 4.0 | 0.00 | 0.00 | 0.00 | 84 | 1008.8 |
| 20260904142925 | 75 | 246 | 2.0 | 7.0 | 0.00 | 0.00 | 0.00 | 84 | 1008.8 |
| 20260904142425 | 74 | 282 | 2.0 | 7.0 | 0.00 | 0.00 | 0.00 | 87 | 1008.8 |
| 20260904141924 | 73 | 304 | 1.0 | 3.0 | 0.00 | 0.00 | 0.00 | 89 | 1008.9 |
| 20260904141424 | 73 | 299 | 1.0 | 4.0 | 0.00 | 0.00 | 0.00 | 91 | 1008.9 |
| 20260904140923 | 72 | 287 | 2.0 | 5.0 | 0.00 | 0.00 | 0.00 | 92 | 1008.9 |
| 20260904140426 | 71 | 290 | 2.0 | 5.0 | 0.00 | 0.00 | 0.00 | 94 | 1008.9 |
| 20260904135924 | 71 | 284 | 1.0 | 4.0 | 0.00 | 0.00 | 0.00 | 95 | 1008.9 |
| 20260904135425 | 70 | 258 | 1.0 | 4.0 | 0.00 | 0.00 | 0.00 | 96 | 1008.8 |
| 20260904134926 | 70 | 277 | 1.0 | 3.0 | 0.00 | 0.00 | 0.00 | 96 | 1009.0 |
| 20260904134425 | 70 | 304 | 1.0 | 3.0 | 0.00 | 0.00 | 0.00 | 97 | 1009.0 |
| 20260904133925 | 70 | 302 | 1.0 | 3.0 | 0.00 | 0.00 | 0.00 | 97 | 1009.0 |
| 20260904133429 | 70 | 269 | 1.0 | 4.0 | 0.00 | 0.00 | 0.00 | 97 | 1008.9 |
| 20260904133424 | 70 | 280 | 1.0 | 3.0 | 0.00 | 0.00 | 0.00 | 97 | 1009.0 |
| 20260904132425 | 69 | 269 | 2.0 | 4.0 | 0.00 | 0.00 | 0.00 | 97 | 1008.9 |
| 20260904131928 | 69 | 258 | 2.0 | 3.0 | 0.00 | 0.00 | 0.00 | 97 | 1009.1 |
| 20260904131923 | 69 | 286 | 2.0 | 3.0 | 0.00 | 0.00 | 0.00 | 97 | 1009.0 |
| 20260904130922 | 69 | 278 | 2.0 | 3.0 | 0.00 | 0.00 | 0.00 | 97 | 1009.2 |
| 20260904130423 | 68 | 270 | 1.0 | 3.0 | 0.00 | 0.00 | 0.00 | 97 | 1009.1 |
| 20260904125923 | 68 | 286 | 1.0 | 3.0 | 0.00 | 0.00 | 0.00 | 97 | 1009.1 |
| 20260904125428 | 68 | 283 | 2.0 | 4.0 | 0.00 | 0.00 | 0.00 | 97 | 1009.1 |
| 20260904125424 | 68 | 287 | 2.0 | 4.0 | 0.00 | 0.00 | 0.00 | 97 | 1009.1 |
| 20260904124430 | 68 | 279 | 1.0 | 4.0 | 0.00 | 0.00 | 0.00 | 97 | 1009.1 |
| 20260904124424 | 68 | 281 | 1.0 | 3.0 | 0.00 | 0.00 | 0.00 | 97 | 1009.1 |
| 20260904124041 | 68 | 278 | 1.0 | 4.0 | 0.00 | 0.00 | 0.00 | 97 | 1009.1 |
| 20260904123538 | 67 | 254 | 1.0 | 3.0 | 0.00 | 0.00 | 0.00 | 97 | 1009.3 |
| 20260904122420 | 67 | 54 | 1.0 | 2.0 | 0.00 | 0.00 | 0.00 | 97 | 1009.2 |
| 20260904121918 | 67 | 54 | 1.0 | 2.0 | 0.00 | 0.01 | 0.00 | 97 | 1009.1 |
| 20260904121423 | 67 | 55 | 0.0 | 1.0 | 0.00 | 0.01 | 0.00 | 97 | 1009.1 |
| 20260904121419 | 67 | 54 | 0.0 | 2.0 | 0.00 | 0.01 | 0.00 | 97 | 1009.1 |
| 20260904120419 | 67 | 55 | 0.0 | 1.0 | 0.00 | 0.01 | 0.00 | 97 | 1009.1 |
| 20260904115918 | 67 | 55 | 0.0 | 2.0 | 0.00 | 0.01 | 0.00 | 97 | 1009.1 |
| 20260904115417 | 67 | 55 | 0.0 | 2.0 | 0.00 | 0.01 | 0.00 | 97 | 1009.1 |
| 20260904114917 | 67 | 55 | 0.0 | 1.0 | 0.00 | 0.01 | 0.00 | 97 | 1009.1 |
| 20260904114419 | 67 | 55 | 1.0 | 1.0 | 0.00 | 0.01 | 0.00 | 97 | 1009.1 |
| 20260904113915 | 66 | 55 | 1.0 | 2.0 | 0.00 | 0.01 | 0.00 | 97 | 1009.1 |
| 20260904113421 | 66 | 55 | 0.0 | 1.0 | 0.00 | 0.01 | 0.00 | 97 | 1009.1 |
| 20260904113416 | 67 | 55 | 0.0 | 2.0 | 0.00 | 0.01 | 0.00 | 97 | 1009.1 |
| 20260904112414 | 66 | 55 | 0.0 | 1.0 | 0.00 | 0.02 | 0.00 | 97 | 1009.1 |
| 20260904111914 | 66 | 55 | 0.0 | 1.0 | 0.00 | 0.03 | 0.00 | 97 | 1009.1 |
| 20260904111413 | 66 | 55 | 0.0 | 1.0 | 0.00 | 0.05 | 0.00 | 97 | 1009.0 |
| 20260904110914 | 66 | 55 | 0.0 | 1.0 | 0.00 | 0.06 | 0.00 | 97 | 1009.0 |
| 20260904110414 | 66 | 55 | 0.0 | 1.0 | 0.00 | 0.06 | 0.00 | 97 | 1009.0 |
| 20260904105913 | 66 | 55 | 1.0 | 2.0 | 0.00 | 0.06 | 0.00 | 97 | 1009.0 |
| 20260904105413 | 66 | 55 | 1.0 | 2.0 | 0.00 | 0.06 | 0.00 | 97 | 1009.1 |
| 20260904104913 | 66 | 83 | 0.0 | 2.0 | 0.00 | 0.06 | 0.00 | 97 | 1009.0 |
| 20260904104415 | 66 | 84 | 0.0 | 0.0 | 0.00 | 0.06 | 0.00 | 97 | 1008.9 |
| 20260904103917 | 66 | 84 | 0.0 | 0.0 | 0.00 | 0.06 | 0.00 | 97 | 1008.8 |
| 20260904103912 | 66 | 84 | 0.0 | 0.0 | 0.00 | 0.06 | 0.00 | 97 | 1008.8 |
| 20260904102912 | 66 | 84 | 0.0 | 0.0 | 0.00 | 0.06 | 0.00 | 97 | 1008.9 |
| 20260904102531 | 66 | 83 | 0.0 | 1.0 | 0.00 | 0.06 | 0.00 | 97 | 1008.7 |
| 20260904102418 | 66 | 84 | 0.0 | 1.0 | 0.00 | 0.06 | 0.00 | 97 | 1008.8 |
| 20260904102411 | 66 | 84 | 0.0 | 0.0 | 0.00 | 0.06 | 0.00 | 97 | 1008.8 |
| 20260904100920 | 66 | 84 | 0.0 | 1.0 | 0.00 | 0.10 | 0.00 | 97 | 1008.6 |
| 20260904100911 | 66 | 84 | 0.0 | 1.0 | 0.00 | 0.07 | 0.00 | 97 | 1008.6 |
| 20260904100413 | 66 | 84 | 0.0 | 1.0 | 0.00 | 0.10 | 0.00 | 97 | 1008.6 |
| 20260904095410 | 66 | 84 | 0.0 | 0.0 | 0.00 | 0.10 | 0.00 | 97 | 1008.6 |
| 20260904094909 | 66 | 84 | 0.0 | 0.0 | 0.00 | 0.11 | 0.00 | 97 | 1008.6 |
| 20260904094408 | 66 | 84 | 0.0 | 0.0 | 0.00 | 0.11 | 0.00 | 97 | 1008.7 |
| 20260904093909 | 66 | 84 | 0.0 | 0.0 | 0.00 | 0.11 | 0.00 | 97 | 1008.7 |
| 20260904093409 | 66 | 84 | 0.0 | 1.0 | 0.00 | 0.11 | 0.00 | 96 | 1008.8 |
| 20260904092908 | 66 | 84 | 0.0 | 1.0 | 0.00 | 0.11 | 0.00 | 96 | 1008.6 |
| 20260904092408 | 66 | 84 | 0.0 | 0.0 | 0.00 | 0.11 | 0.00 | 97 | 1008.7 |
| 20260904091912 | 66 | 84 | 0.0 | 0.0 | 0.00 | 0.11 | 0.00 | 96 | 1008.6 |
| 20260904091907 | 66 | 84 | 0.0 | 0.0 | 0.00 | 0.11 | 0.00 | 96 | 1008.7 |
| 20260904091525 | 66 | 84 | 0.0 | 0.0 | 0.00 | 0.12 | 0.00 | 96 | 1008.6 |
| 20260904090905 | 66 | 84 | 0.0 | 0.0 | 0.00 | 0.12 | 0.00 | 96 | 1008.6 |
| 20260904085905 | 66 | 84 | 0.0 | 0.0 | 0.00 | 0.13 | 0.00 | 96 | 1008.6 |
| 20260904085406 | 66 | 84 | 0.0 | 0.0 | 0.00 | 0.13 | 0.00 | 96 | 1008.6 |
| 20260904084905 | 66 | 84 | 0.0 | 0.0 | 0.00 | 0.14 | 0.00 | 97 | 1008.8 |
| 20260904084410 | 66 | 84 | 0.0 | 0.0 | 0.00 | 0.17 | 0.00 | 97 | 1008.7 |
| 20260904084404 | 66 | 84 | 0.0 | 0.0 | 0.00 | 0.15 | 0.00 | 97 | 1008.7 |
| 20260904083402 | 67 | 84 | 0.0 | 0.0 | 0.00 | 0.18 | 0.00 | 97 | 1008.6 |
| 20260904082904 | 67 | 84 | 0.0 | 0.0 | 0.00 | 0.19 | 0.00 | 97 | 1008.7 |
| 20260904082404 | 67 | 84 | 0.0 | 1.0 | 0.00 | 0.19 | 0.00 | 97 | 1008.8 |
| 20260904081902 | 67 | 83 | 0.0 | 1.0 | 0.00 | 0.19 | 0.00 | 96 | 1008.8 |
| 20260904081404 | 67 | 84 | 0.0 | 0.0 | 0.00 | 0.19 | 0.00 | 97 | 1008.9 |
| 20260904080904 | 67 | 84 | 0.0 | 0.0 | 0.00 | 0.19 | 0.00 | 97 | 1008.8 |
| 20260904080404 | 67 | 84 | 0.0 | 1.0 | 0.00 | 0.19 | 0.00 | 96 | 1008.6 |
| 20260904075904 | 67 | 83 | 0.0 | 1.0 | 0.00 | 0.19 | 0.00 | 96 | 1008.7 |
| 20260904075403 | 67 | 84 | 0.0 | 1.0 | 0.00 | 0.19 | 0.00 | 96 | 1008.8 |
| 20260904074903 | 67 | 84 | 0.0 | 1.0 | 0.00 | 0.19 | 0.00 | 96 | 1008.9 |
| 20260904074403 | 67 | 84 | 0.0 | 1.0 | 0.00 | 0.19 | 0.00 | 96 | 1008.9 |
| 20260904073900 | 67 | 84 | 0.0 | 1.0 | 0.00 | 0.19 | 0.00 | 96 | 1009.1 |
| 20260904073403 | 67 | 83 | 0.0 | 1.0 | 0.00 | 0.19 | 0.00 | 97 | 1009.2 |
| 20260904072901 | 67 | 84 | 0.0 | 0.0 | 0.00 | 0.19 | 0.00 | 96 | 1009.3 |
| 20260904072403 | 67 | 84 | 0.0 | 0.0 | 0.00 | 0.19 | 0.00 | 96 | 1009.2 |
| 20260904071906 | 67 | 83 | 0.0 | 1.0 | 0.00 | 0.19 | 0.00 | 96 | 1009.3 |
| 20260904071901 | 67 | 84 | 0.0 | 1.0 | 0.00 | 0.19 | 0.00 | 96 | 1009.2 |
| 20260904070900 | 67 | 83 | 0.0 | 1.0 | 0.00 | 0.19 | 0.00 | 96 | 1009.4 |
| 20260904070406 | 67 | 84 | 0.0 | 1.0 | 0.00 | 0.19 | 0.00 | 96 | 1009.5 |
| 20260904070402 | 67 | 84 | 0.0 | 0.0 | 0.00 | 0.19 | 0.00 | 96 | 1009.5 |
| 20260904070016 | 67 | 84 | 0.0 | 1.0 | 0.00 | 0.19 | 0.00 | 96 | 1009.5 |
| 20260904065520 | 67 | 84 | 0.0 | 1.0 | 0.00 | 0.19 | 0.00 | 96 | 1009.5 |
| 20260904064401 | 67 | 84 | 0.0 | 1.0 | 0.00 | 0.19 | 0.00 | 96 | 1009.5 |
| 20260904063900 | 67 | 83 | 0.0 | 1.0 | 0.00 | 0.19 | 0.00 | 96 | 1009.5 |
| 20260904063402 | 66 | 84 | 0.0 | 0.0 | 0.00 | 0.19 | 0.00 | 96 | 1009.5 |
| 20260904062906 | 66 | 84 | 0.0 | 1.0 | 0.00 | 0.19 | 0.00 | 96 | 1009.5 |
| 20260904062406 | 66 | 83 | 0.0 | 1.0 | 0.00 | 0.19 | 0.00 | 96 | 1009.5 |
| 20260904062401 | 66 | 83 | 0.0 | 1.0 | 0.00 | 0.19 | 0.00 | 96 | 1009.4 |
| 20260904061401 | 66 | 84 | 0.0 | 1.0 | 0.00 | 0.19 | 0.00 | 96 | 1009.6 |
| 20260904060901 | 66 | 84 | 0.0 | 1.0 | 0.00 | 0.19 | 0.00 | 96 | 1009.7 |
| 20260904060400 | 66 | 84 | 0.0 | 1.0 | 0.00 | 0.19 | 0.00 | 96 | 1009.6 |
| 20260904055858 | 66 | 83 | 0.0 | 1.0 | 0.00 | 0.19 | 0.00 | 96 | 1009.7 |
| 20260904055356 | 66 | 84 | 0.0 | 1.0 | 0.00 | 0.19 | 0.00 | 96 | 1009.9 |
| 20260904054858 | 66 | 84 | 0.0 | 2.0 | 0.00 | 0.19 | 0.00 | 96 | 1009.8 |
| 20260904054356 | 66 | 83 | 0.0 | 2.0 | 0.00 | 0.19 | 0.00 | 96 | 1009.8 |
| 20260904053859 | 66 | 84 | 0.0 | 0.0 | 0.00 | 0.19 | 0.00 | 96 | 1009.8 |
| 20260904053854 | 66 | 83 | 0.0 | 2.0 | 0.00 | 0.19 | 0.00 | 96 | 1009.9 |
| 20260904052855 | 66 | 84 | 0.0 | 0.0 | 0.00 | 0.19 | 0.00 | 96 | 1009.9 |
| 20260904052355 | 65 | 84 | 0.0 | 0.0 | 0.00 | 0.19 | 0.00 | 96 | 1010.0 |
| 20260904051854 | 65 | 84 | 0.0 | 0.0 | 0.00 | 0.19 | 0.00 | 95 | 1009.9 |
| 20260904051354 | 65 | 84 | 0.0 | 0.0 | 0.00 | 0.19 | 0.00 | 95 | 1010.0 |
| 20260904050855 | 65 | 84 | 0.0 | 0.0 | 0.00 | 0.19 | 0.00 | 95 | 1010.1 |
| 20260904050358 | 65 | 84 | 0.0 | 0.0 | 0.00 | 0.19 | 0.00 | 95 | 1010.2 |
| 20260904050352 | 65 | 84 | 0.0 | 0.0 | 0.00 | 0.19 | 0.00 | 95 | 1010.1 |
| 20260904045353 | 65 | 84 | 0.0 | 1.0 | 0.00 | 0.19 | 0.00 | 95 | 1010.3 |
| 20260904044855 | 66 | 84 | 0.0 | 1.0 | 0.00 | 0.19 | 0.00 | 96 | 1010.4 |
| 20260904044851 | 66 | 84 | 0.0 | 1.0 | 0.00 | 0.19 | 0.00 | 95 | 1010.3 |
| 20260904043857 | 66 | 84 | 0.0 | 1.0 | 0.00 | 0.19 | 0.00 | 95 | 1010.5 |
| 20260904043852 | 66 | 84 | 0.0 | 0.0 | 0.00 | 0.19 | 0.00 | 95 | 1010.4 |
| 20260904042852 | 66 | 84 | 0.0 | 1.0 | 0.00 | 0.19 | 0.00 | 95 | 1010.4 |
| 20260904042348 | 66 | 84 | 0.0 | 0.0 | 0.00 | 0.19 | 0.00 | 95 | 1010.5 |
| 20260904041850 | 66 | 84 | 0.0 | 0.0 | 0.00 | 0.19 | 0.00 | 95 | 1010.5 |
| 20260904041348 | 66 | 84 | 0.0 | 1.0 | 0.00 | 0.19 | 0.00 | 95 | 1010.5 |
| 20260904040849 | 66 | 84 | 0.0 | 1.0 | 0.00 | 0.19 | 0.00 | 95 | 1010.6 |
| 20260904040348 | 66 | 84 | 0.0 | 0.0 | 0.00 | 0.19 | 0.00 | 95 | 1010.6 |
| 20260904035847 | 66 | 84 | 0.0 | 0.0 | 0.00 | 0.19 | 0.19 | 95 | 1010.5 |
| 20260904035346 | 66 | 84 | 0.0 | 0.0 | 0.00 | 0.19 | 0.19 | 95 | 1010.7 |
| 20260904034846 | 67 | 84 | 0.0 | 0.0 | 0.00 | 0.19 | 0.19 | 95 | 1010.7 |
| 20260904034347 | 67 | 84 | 0.0 | 0.0 | 0.00 | 0.19 | 0.19 | 95 | 1010.7 |
| 20260904033847 | 67 | 84 | 0.0 | 1.0 | 0.00 | 0.19 | 0.19 | 95 | 1010.8 |
| 20260904033353 | 67 | 84 | 0.0 | 1.0 | 0.00 | 0.19 | 0.19 | 95 | 1010.7 |
| 20260904033347 | 67 | 84 | 0.0 | 1.0 | 0.00 | 0.19 | 0.19 | 95 | 1010.8 |
| 20260904032347 | 67 | 84 | 0.0 | 0.0 | 0.00 | 0.19 | 0.19 | 95 | 1010.8 |
| 20260904031847 | 67 | 84 | 0.0 | 0.0 | 0.00 | 0.19 | 0.19 | 95 | 1010.8 |
| 20260904031345 | 67 | 84 | 0.0 | 0.0 | 0.00 | 0.19 | 0.19 | 95 | 1010.8 |
| 20260904030844 | 67 | 84 | 0.0 | 0.0 | 0.00 | 0.19 | 0.19 | 94 | 1010.8 |
| 20260904030346 | 67 | 84 | 0.0 | 0.0 | 0.00 | 0.19 | 0.19 | 95 | 1010.8 |
| 20260904025843 | 67 | 84 | 0.0 | 0.0 | 0.00 | 0.19 | 0.19 | 94 | 1010.8 |
| 20260904025343 | 67 | 84 | 0.0 | 0.0 | 0.00 | 0.19 | 0.19 | 95 | 1010.9 |
| 20260904024845 | 68 | 84 | 0.0 | 0.0 | 0.00 | 0.19 | 0.19 | 95 | 1011.0 |
| 20260904024345 | 68 | 84 | 0.0 | 0.0 | 0.00 | 0.19 | 0.19 | 95 | 1011.1 |
| 20260904023845 | 68 | 84 | 0.0 | 0.0 | 0.00 | 0.19 | 0.19 | 95 | 1011.1 |
| 20260904023344 | 68 | 84 | 0.0 | 0.0 | 0.00 | 0.19 | 0.19 | 94 | 1011.1 |
| 20260904022845 | 68 | 84 | 0.0 | 0.0 | 0.00 | 0.19 | 0.19 | 94 | 1011.2 |
| 20260904022345 | 68 | 84 | 0.0 | 0.0 | 0.00 | 0.19 | 0.19 | 94 | 1011.2 |
| 20260904021843 | 68 | 84 | 0.0 | 0.0 | 0.00 | 0.19 | 0.19 | 94 | 1011.2 |
| 20260904021344 | 68 | 84 | 0.0 | 0.0 | 0.00 | 0.19 | 0.19 | 94 | 1011.2 |
| 20260904020845 | 68 | 84 | 0.0 | 0.0 | 0.00 | 0.19 | 0.19 | 94 | 1011.2 |
| 20260904020344 | 68 | 84 | 0.0 | 0.0 | 0.00 | 0.19 | 0.19 | 94 | 1011.2 |
| 20260904015850 | 68 | 84 | 0.0 | 0.0 | 0.00 | 0.19 | 0.19 | 94 | 1011.2 |
| 20260904015844 | 68 | 84 | 0.0 | 0.0 | 0.00 | 0.19 | 0.19 | 94 | 1011.3 |
| 20260904015503 | 68 | 84 | 0.0 | 0.0 | 0.00 | 0.19 | 0.19 | 94 | 1011.4 |
| 20260904014844 | 68 | 84 | 0.0 | 0.0 | 0.00 | 0.19 | 0.19 | 94 | 1011.3 |
| 20260904013843 | 68 | 84 | 0.0 | 0.0 | 0.00 | 0.19 | 0.19 | 94 | 1011.5 |
| 20260904013342 | 69 | 84 | 0.0 | 0.0 | 0.00 | 0.19 | 0.19 | 94 | 1011.6 |
| 20260904012842 | 69 | 84 | 0.0 | 0.0 | 0.00 | 0.19 | 0.19 | 94 | 1011.7 |
| 20260904012347 | 69 | 84 | 0.0 | 0.0 | 0.00 | 0.19 | 0.19 | 93 | 1011.8 |
| 20260904012343 | 69 | 84 | 0.0 | 0.0 | 0.00 | 0.19 | 0.19 | 94 | 1011.8 |
| 20260904011841 | 69 | 84 | 0.0 | 0.0 | 0.00 | 0.19 | 0.19 | 94 | 1011.7 |
| 20260904010843 | 69 | 84 | 0.0 | 0.0 | 0.00 | 0.19 | 0.19 | 93 | 1011.6 |
| 20260904010837 | 69 | 84 | 0.0 | 0.0 | 0.00 | 0.19 | 0.19 | 93 | 1011.6 |
| 20260904005839 | 69 | 84 | 0.0 | 0.0 | 0.00 | 0.19 | 0.19 | 93 | 1011.6 |
| 20260904005338 | 69 | 84 | 0.0 | 0.0 | 0.00 | 0.19 | 0.19 | 93 | 1011.4 |
| 20260904004838 | 69 | 84 | 0.0 | 0.0 | 0.00 | 0.19 | 0.19 | 93 | 1011.3 |
| 20260904004339 | 70 | 84 | 0.0 | 0.0 | 0.00 | 0.19 | 0.19 | 93 | 1011.3 |
| 20260904003839 | 70 | 84 | 0.0 | 0.0 | 0.00 | 0.19 | 0.19 | 93 | 1011.2 |
| 20260904003343 | 70 | 84 | 0.0 | 0.0 | 0.00 | 0.19 | 0.19 | 92 | 1011.1 |
| 20260904003337 | 70 | 84 | 0.0 | 0.0 | 0.00 | 0.19 | 0.19 | 92 | 1011.0 |
| 20260904002338 | 70 | 84 | 0.0 | 0.0 | 0.00 | 0.19 | 0.19 | 93 | 1011.2 |
| 20260904001839 | 70 | 84 | 0.0 | 0.0 | 0.00 | 0.19 | 0.19 | 92 | 1011.0 |
| 20260904001339 | 70 | 84 | 0.0 | 1.0 | 0.00 | 0.19 | 0.19 | 92 | 1011.0 |
| 20260904000838 | 71 | 84 | 0.0 | 1.0 | 0.00 | 0.19 | 0.19 | 92 | 1010.8 |
| 20260904000340 | 71 | 84 | 0.0 | 1.0 | 0.00 | 0.19 | 0.19 | 92 | 1010.9 |
| 20260903235837 | 71 | 84 | 0.0 | 1.0 | 0.00 | 0.19 | 0.19 | 91 | 1010.8 |
| 20260903235339 | 71 | 84 | 0.0 | 1.0 | 0.00 | 0.19 | 0.19 | 91 | 1010.9 |
| 20260903234837 | 71 | 84 | 0.0 | 0.0 | 0.00 | 0.19 | 0.19 | 91 | 1011.1 |
| 20260903234337 | 71 | 84 | 0.0 | 0.0 | 0.00 | 0.19 | 0.19 | 91 | 1010.9 |
| 20260903233843 | 72 | 84 | 0.0 | 0.0 | 0.00 | 0.19 | 0.19 | 90 | 1010.9 |
| 20260903233838 | 72 | 84 | 0.0 | 0.0 | 0.00 | 0.19 | 0.19 | 91 | 1010.8 |
| 20260903233338 | 72 | 84 | 0.0 | 0.0 | 0.00 | 0.19 | 0.19 | 91 | 1010.8 |
| 20260903232957 | 72 | 84 | 0.0 | 1.0 | 0.00 | 0.19 | 0.19 | 90 | 1010.9 |
| 20260903231839 | 73 | 84 | 0.0 | 1.0 | 0.00 | 0.19 | 0.19 | 90 | 1010.7 |
| 20260903231339 | 73 | 84 | 0.0 | 1.0 | 0.00 | 0.19 | 0.19 | 90 | 1010.6 |
| 20260903230838 | 73 | 83 | 0.0 | 1.0 | 0.00 | 0.19 | 0.19 | 90 | 1010.5 |
| 20260903230336 | 73 | 84 | 0.0 | 0.0 | 0.00 | 0.19 | 0.19 | 90 | 1010.6 |
| 20260903225837 | 74 | 84 | 0.0 | 1.0 | 0.00 | 0.19 | 0.19 | 89 | 1010.5 |
| 20260903225336 | 74 | 84 | 0.0 | 1.0 | 0.00 | 0.19 | 0.19 | 89 | 1010.7 |
| 20260903224836 | 74 | 83 | 0.0 | 1.0 | 0.00 | 0.19 | 0.19 | 89 | 1010.7 |
| 20260903224336 | 74 | 84 | 0.0 | 1.0 | 0.00 | 0.19 | 0.19 | 88 | 1010.9 |
| 20260903223837 | 75 | 84 | 0.0 | 1.0 | 0.00 | 0.19 | 0.19 | 88 | 1010.9 |
| 20260903223338 | 75 | 84 | 0.0 | 2.0 | 0.00 | 0.19 | 0.19 | 88 | 1011.1 |
| 20260903223333 | 75 | 83 | 0.0 | 1.0 | 0.00 | 0.19 | 0.19 | 88 | 1010.9 |
| 20260903222333 | 75 | 83 | 1.0 | 2.0 | 0.00 | 0.19 | 0.19 | 87 | 1011.1 |
| 20260903221833 | 76 | 83 | 0.0 | 1.0 | 0.00 | 0.19 | 0.19 | 87 | 1011.1 |
| 20260903221334 | 76 | 83 | 0.0 | 2.0 | 0.00 | 0.19 | 0.19 | 87 | 1011.2 |
| 20260903220831 | 76 | 83 | 1.0 | 2.0 | 0.00 | 0.19 | 0.19 | 87 | 1011.2 |
| 20260903220333 | 76 | 83 | 0.0 | 2.0 | 0.00 | 0.19 | 0.19 | 87 | 1011.2 |
| 20260903215831 | 76 | 83 | 0.0 | 1.0 | 0.00 | 0.19 | 0.19 | 87 | 1011.2 |
| 20260903215334 | 76 | 83 | 0.0 | 2.0 | 0.00 | 0.19 | 0.19 | 87 | 1011.0 |
| 20260903214833 | 76 | 83 | 0.0 | 2.0 | 0.00 | 0.19 | 0.19 | 87 | 1011.0 |
| 20260903214332 | 75 | 83 | 1.0 | 3.0 | 0.00 | 0.19 | 0.19 | 87 | 1010.9 |
| 20260903214328 | 76 | 83 | 0.0 | 3.0 | 0.00 | 0.19 | 0.19 | 87 | 1010.9 |
| 20260903213327 | 75 | 83 | 1.0 | 3.0 | 0.00 | 0.19 | 0.19 | 88 | 1010.9 |
| 20260903212828 | 75 | 84 | 1.0 | 3.0 | 0.00 | 0.19 | 0.19 | 89 | 1010.9 |
| 20260903212329 | 75 | 84 | 1.0 | 3.0 | 0.00 | 0.19 | 0.19 | 88 | 1010.8 |
| 20260903211828 | 75 | 84 | 1.0 | 2.0 | 0.00 | 0.19 | 0.19 | 88 | 1010.9 |
| 20260903211325 | 75 | 84 | 1.0 | 3.0 | 0.00 | 0.19 | 0.19 | 88 | 1010.9 |
| 20260903210825 | 75 | 84 | 1.0 | 3.0 | 0.00 | 0.19 | 0.19 | 88 | 1011.0 |
| 20260903210326 | 75 | 77 | 1.0 | 3.0 | 0.00 | 0.19 | 0.19 | 88 | 1011.0 |
| 20260903205825 | 75 | 77 | 1.0 | 3.0 | 0.00 | 0.19 | 0.19 | 88 | 1010.9 |
| 20260903205326 | 75 | 79 | 0.0 | 2.0 | 0.00 | 0.19 | 0.19 | 88 | 1010.9 |
| 20260903204831 | 75 | 79 | 0.0 | 2.0 | 0.00 | 0.19 | 0.19 | 88 | 1011.0 |
| 20260903204826 | 75 | 79 | 0.0 | 2.0 | 0.00 | 0.19 | 0.19 | 88 | 1011.0 |
| 20260903203827 | 75 | 79 | 0.0 | 2.0 | 0.00 | 0.19 | 0.19 | 88 | 1011.0 |
| 20260903203325 | 75 | 79 | 0.0 | 2.0 | 0.00 | 0.19 | 0.19 | 88 | 1011.1 |
| 20260903202825 | 75 | 79 | 1.0 | 3.0 | 0.00 | 0.19 | 0.19 | 87 | 1011.1 |
| 20260903202323 | 75 | 79 | 1.0 | 3.0 | 0.00 | 0.19 | 0.19 | 87 | 1011.2 |
| 20260903201829 | 75 | 79 | 1.0 | 4.0 | 0.00 | 0.19 | 0.19 | 88 | 1011.0 |
| 20260903201825 | 75 | 79 | 1.0 | 4.0 | 0.00 | 0.19 | 0.19 | 87 | 1011.0 |
| 20260903200822 | 75 | 103 | 1.0 | 3.0 | 0.00 | 0.19 | 0.19 | 87 | 1011.0 |
| 20260903200325 | 75 | 103 | 1.0 | 3.0 | 0.00 | 0.19 | 0.19 | 87 | 1011.1 |
| 20260903195828 | 75 | 108 | 1.0 | 3.0 | 0.00 | 0.19 | 0.19 | 88 | 1011.2 |
| 20260903195823 | 75 | 98 | 1.0 | 3.0 | 0.00 | 0.19 | 0.19 | 88 | 1011.1 |
| 20260903195443 | 75 | 98 | 1.0 | 3.0 | 0.00 | 0.19 | 0.19 | 87 | 1011.3 |
| 20260903194324 | 75 | 96 | 1.0 | 3.0 | 0.00 | 0.19 | 0.19 | 87 | 1011.3 |
| 20260903193828 | 75 | 88 | 1.0 | 4.0 | 0.00 | 0.19 | 0.19 | 87 | 1011.4 |
| 20260903193822 | 75 | 88 | 1.0 | 3.0 | 0.00 | 0.19 | 0.19 | 87 | 1011.3 |
| 20260903192821 | 75 | 88 | 2.0 | 4.0 | 0.00 | 0.19 | 0.19 | 87 | 1011.5 |
| 20260903192322 | 75 | 85 | 1.0 | 4.0 | 0.00 | 0.19 | 0.19 | 87 | 1011.6 |
| 20260903191823 | 75 | 69 | 1.0 | 3.0 | 0.00 | 0.19 | 0.19 | 86 | 1011.6 |
| 20260903191321 | 76 | 269 | 0.0 | 2.0 | 0.00 | 0.19 | 0.19 | 87 | 1011.6 |
| 20260903190819 | 76 | 269 | 1.0 | 3.0 | 0.00 | 0.19 | 0.19 | 86 | 1011.6 |
| 20260903190319 | 76 | 266 | 1.0 | 3.0 | 0.00 | 0.19 | 0.19 | 86 | 1011.7 |
| 20260903185821 | 76 | 289 | 1.0 | 4.0 | 0.00 | 0.19 | 0.19 | 86 | 1011.8 |
| 20260903185320 | 76 | 116 | 2.0 | 6.0 | 0.00 | 0.19 | 0.19 | 86 | 1011.7 |
| 20260903184819 | 76 | 102 | 2.0 | 6.0 | 0.00 | 0.19 | 0.19 | 85 | 1011.8 |
| 20260903184319 | 76 | 48 | 1.0 | 4.0 | 0.00 | 0.19 | 0.19 | 85 | 1011.9 |
| 20260903183819 | 77 | 37 | 1.0 | 4.0 | 0.00 | 0.19 | 0.19 | 85 | 1011.9 |
| 20260903183317 | 77 | 60 | 1.0 | 3.0 | 0.00 | 0.19 | 0.19 | 85 | 1011.9 |
| 20260903182818 | 77 | 69 | 1.0 | 4.0 | 0.00 | 0.19 | 0.19 | 86 | 1012.0 |
| 20260903182318 | 77 | 273 | 1.0 | 4.0 | 0.00 | 0.19 | 0.19 | 85 | 1012.1 |
| 20260903181816 | 77 | 288 | 1.0 | 3.0 | 0.00 | 0.19 | 0.19 | 86 | 1012.1 |
| 20260903181316 | 77 | 285 | 1.0 | 3.0 | 0.00 | 0.19 | 0.19 | 86 | 1012.1 |
| 20260903180819 | 78 | 287 | 0.0 | 2.0 | 0.00 | 0.19 | 0.19 | 85 | 1012.0 |
| 20260903180814 | 77 | 286 | 1.0 | 3.0 | 0.00 | 0.19 | 0.19 | 86 | 1012.0 |
| 20260903180314 | 77 | 287 | 0.0 | 3.0 | 0.00 | 0.19 | 0.19 | 85 | 1012.0 |
| 20260903175313 | 78 | 287 | 0.0 | 2.0 | 0.00 | 0.19 | 0.19 | 86 | 1012.0 |
| 20260903174809 | 77 | 287 | 0.0 | 2.0 | 0.00 | 0.19 | 0.19 | 87 | 1011.9 |
| 20260903174310 | 77 | 287 | 0.0 | 2.0 | 0.00 | 0.19 | 0.19 | 88 | 1012.0 |
| 20260903173808 | 77 | 287 | 0.0 | 1.0 | 0.00 | 0.19 | 0.19 | 87 | 1012.0 |
| 20260903173314 | 77 | 287 | 0.0 | 1.0 | 0.00 | 0.19 | 0.19 | 87 | 1012.2 |
| 20260903173310 | 77 | 287 | 0.0 | 1.0 | 0.00 | 0.19 | 0.19 | 87 | 1012.2 |
| 20260903172310 | 77 | 287 | 1.0 | 3.0 | 0.00 | 0.19 | 0.19 | 87 | 1012.3 |
| 20260903171809 | 77 | 287 | 1.0 | 3.0 | 0.00 | 0.19 | 0.19 | 87 | 1012.3 |
| 20260903171310 | 77 | 304 | 1.0 | 3.0 | 0.00 | 0.19 | 0.19 | 88 | 1012.2 |
| 20260903170808 | 77 | 316 | 1.0 | 3.0 | 0.00 | 0.19 | 0.19 | 89 | 1012.1 |
| 20260903170310 | 76 | 315 | 1.0 | 3.0 | 0.00 | 0.19 | 0.19 | 90 | 1012.0 |
| 20260903165809 | 76 | 314 | 1.0 | 3.0 | 0.00 | 0.19 | 0.19 | 90 | 1012.0 |
| 20260903165314 | 75 | 314 | 0.0 | 2.0 | 0.00 | 0.19 | 0.19 | 90 | 1012.0 |
| 20260903165309 | 75 | 316 | 1.0 | 3.0 | 0.00 | 0.19 | 0.19 | 90 | 1012.0 |
| 20260903164310 | 75 | 313 | 0.0 | 2.0 | 0.00 | 0.19 | 0.19 | 91 | 1012.0 |
| 20260903163809 | 75 | 313 | 0.0 | 2.0 | 0.00 | 0.19 | 0.19 | 91 | 1011.9 |
| 20260903163311 | 75 | 313 | 0.0 | 2.0 | 0.00 | 0.19 | 0.19 | 91 | 1011.8 |
| 20260903162810 | 75 | 315 | 1.0 | 4.0 | 0.00 | 0.19 | 0.19 | 90 | 1011.8 |
| 20260903162309 | 75 | 315 | 2.0 | 4.0 | 0.00 | 0.19 | 0.19 | 91 | 1011.8 |
| 20260903161811 | 74 | 306 | 2.0 | 4.0 | 0.00 | 0.19 | 0.19 | 93 | 1011.9 |
| 20260903161313 | 73 | 288 | 1.0 | 3.0 | 0.00 | 0.19 | 0.19 | 95 | 1012.1 |
| 20260903161309 | 73 | 311 | 1.0 | 4.0 | 0.00 | 0.19 | 0.19 | 94 | 1012.0 |
| 20260903160309 | 73 | 296 | 1.0 | 2.0 | 0.00 | 0.19 | 0.19 | 96 | 1012.1 |
| 20260903155808 | 73 | 296 | 1.0 | 3.0 | 0.00 | 0.19 | 0.19 | 96 | 1012.2 |
| 20260903155309 | 73 | 296 | 2.0 | 4.0 | 0.00 | 0.19 | 0.19 | 96 | 1012.4 |
| 20260903154808 | 73 | 315 | 2.0 | 4.0 | 0.00 | 0.19 | 0.19 | 96 | 1012.4 |
| 20260903154308 | 72 | 317 | 1.0 | 4.0 | 0.00 | 0.19 | 0.19 | 96 | 1012.6 |
| 20260903153810 | 73 | 344 | 1.0 | 3.0 | 0.00 | 0.19 | 0.19 | 97 | 1012.6 |
| 20260903153309 | 73 | 46 | 1.0 | 2.0 | 0.00 | 0.19 | 0.19 | 97 | 1012.7 |
| 20260903152810 | 73 | 118 | 1.0 | 4.0 | 0.00 | 0.19 | 0.19 | 97 | 1012.7 |
| 20260903152308 | 73 | 298 | 1.0 | 4.0 | 0.00 | 0.19 | 0.19 | 97 | 1012.7 |